THORAD AGENA D DEB, 16715

Orbit data source: Space-Track

THORAD AGENA D DEB, 16715 is space debris in SSO originally from a launch on Wed, 08 Apr 1970 UTC launched from the Air Force Western Test Range (AFWTR). Debris objects in space refer to the collection of defunct objects orbiting the Earth. Examples of debris include non-operational satellites, rocket bodies, and fragments generated from explosions, collisions, or faulty payload assembly.

Loading next visibility...
Identifier
16715, 1970-025PA
Orbit
SSO
Country
Flag of USUS
Related business
Manufacturer
Unknown
Mission
Spacecraft
Bus & Motor
Unknown
Mass
Unknown
Launch date (UTC)
1970-04-08 (56 years ago)
Launch vehicle
Unknown
Launch site
Air Force Western Test Range (AFWTR)
Object type
Payload
Rocket body
Debris
Shape & HBR
Unknown shape, 0.1 m
Radar Cross Section
Small (<0.1 m²)

Expand to show TLE details & history
Last TLE update: 11 hours ago

TLE from 11 hours ago
0 THORAD AGENA D DEB
1 16715U 70025PA  26033.93556294  .00000211  00000-0  33866-3 0  9994
2 16715 100.1197 207.0278 0006253  54.8819 101.9492 13.61450665 27460
Epoch: 2026-02-02T22:27Z
TLE epoch observation values (Epoch: 2026-02-02T22:27:12.638Z)
Latitude
22.73752°
Longitude
-78.63114°
Altitude
1,034.032 km
Speed
7.336 km/s
True Right ascension
02h 05m 10s
True Declination
22° 37' 11"
Sunlit
Object was in daylight at epoch
Visualization orbit readout
Latitude
Unknown
Longitude
Unknown
Altitude
Unknown
Speed
Unknown
Apparent Right ascension
Unknown
Apparent Declination
Unknown
Sunlit
N/A
Visualization observer readout
Local Sidereal Time
11:43:03
Azimuth
Unknown
Elevation
Unknown
Doppler factor
Unknown
Orbital elements
Apogee altitude
1,032.364 km
Perigee altitude
1,023.102 km
Semi-major axis
7,405.87 km
Eccentricity
0.00063
Inclination
100.1197°
RAAN
207.0278°
Arg. of periapsis
54.8819°
True anomaly
102.01929°
Mean anomaly
101.9492°
Eccentric anomaly
101.98425°
Mean motion
3.40549 °/min
Orbital period
105.71 mins
BSTAR
0.00033866
Loading maneuver chart data...
Computing Atmospheric mass density...

Documentation

Showing up to 5 results
|